Anniston, AL

11:30 AM CST on November 18, 2019 (GMT -0600)
Anniston Metro

Weather History for KANB - September, 2019

Change the Weather History Date:

Thursday, September 12, 2019

  Actual Average Record
Temperature  
Mean Temperature 84 °F 75 °F  
Max Temperature 99 °F 85 °F 99 °F (2019)
Min Temperature 68 °F 64 °F 47 °F (1968)
Degree Days  
Heating Degree Days 0    
Month to date heating degree days 0  
Since 1 July heating degree days 0  
Cooling Degree Days 18    
Growing Degree Days 32 (Base 50)    
Moisture  
Dew Point 66 °F    
Average Humidity 63    
Maximum Humidity 97    
Minimum Humidity 29    
Precipitation  
Precipitation 0.00 in 0.10 in 3.00 in (1966)
Month to date precipitation T 1.21  
Year to date precipitation 39.17 36.13  
Sea Level Pressure  
Sea Level Pressure 30.10 in    
Wind  
Wind Speed 3 mph (ENE)    
Max Wind Speed 10 mph    
Max Gust Speed 14 mph    
Visibility 10 miles    
Events      
T = Trace of Precipitation, MM = Missing Value Source: NWS Daily Summary

Daily Weather History Graph

Daily Weather History Graph

Search for Another Location

Airport or City:

Astronomy

Sep. 12, 2019 Rise Set
Actual Time 6:24 AM CDT 6:54 PM CDT
Civil Twilight 5:59 AM CDT 7:19 PM CDT
Nautical Twilight 5:30 AM CDT 7:48 PM CDT
Astronomical Twilight 5:00 AM CDT 8:18 PM CDT
Moon 6:31 PM CDT (9/12) 4:51 AM CDT (9/12)
Length of Visible Light 13h 19m
Length of Day
12h 29m
Waxing Gibbous, 98% of the Moon is Illuminated
Sep 12
Waxing Gibbous
Sep 13
Full
Sep 21
Last Quarter
Sep 28
New
Oct 5
First Quarter

Hourly Weather History & Observations

Time (CDT) Temp. Heat Index Dew Point Humidity Pressure Visibility Wind Dir Wind Speed Gust Speed Precip Events Conditions
12:53 AM 71.1 °F - 68.0 °F 90% 30.13 in 10.0 mi Calm Calm - N/A   Clear
1:53 AM 71.1 °F - 68.0 °F 90% 30.12 in 10.0 mi East 3.5 mph - N/A   Clear
2:53 AM 71.1 °F - 68.0 °F 90% 30.10 in 10.0 mi ENE 3.5 mph - N/A   Clear
3:53 AM 70.0 °F - 68.0 °F 93% 30.11 in 9.0 mi ENE 3.5 mph - N/A   Clear
4:53 AM 69.1 °F - 66.9 °F 93% 30.11 in 9.0 mi Calm Calm - N/A   Clear
5:53 AM 68.0 °F - 66.0 °F 93% 30.14 in 9.0 mi ESE 4.6 mph - N/A   Clear
6:53 AM 69.1 °F - 66.9 °F 93% 30.16 in 8.0 mi East 3.5 mph - N/A   Clear
7:53 AM 72.0 °F - 66.9 °F 84% 30.17 in 10.0 mi Calm Calm - N/A   Clear
8:53 AM 78.1 °F - 69.1 °F 74% 30.17 in 10.0 mi ENE 3.5 mph - N/A   Clear
9:53 AM 86.0 °F 90.7 °F 70.0 °F 59% 30.16 in 10.0 mi Calm Calm - N/A   Clear
10:53 AM 91.0 °F 95.6 °F 69.1 °F 48% 30.14 in 10.0 mi East 4.6 mph - N/A   Clear
11:53 AM 96.1 °F 101.0 °F 68.0 °F 40% 30.13 in 10.0 mi North 8.1 mph - N/A   Scattered Clouds
12:53 PM 95.0 °F 97.9 °F 66.0 °F 38% 30.11 in 10.0 mi ENE 4.6 mph - N/A   Partly Cloudy
1:53 PM 97.0 °F 99.3 °F 64.0 °F 34% 30.08 in 10.0 mi Calm Calm - N/A   Clear
2:53 PM 97.0 °F 96.5 °F 59.0 °F 28% 30.06 in 10.0 mi Variable 3.5 mph - N/A   Partly Cloudy
3:53 PM 96.1 °F 96.0 °F 60.1 °F 30% 30.04 in 10.0 mi East 6.9 mph - N/A   Scattered Clouds
4:53 PM 97.0 °F 96.5 °F 59.0 °F 28% 30.03 in 10.0 mi ENE 4.6 mph - N/A   Clear
5:53 PM 93.9 °F 95.2 °F 63.0 °F 36% 30.04 in 10.0 mi Calm Calm - N/A   Clear
6:53 PM 81.0 °F 83.3 °F 66.9 °F 62% 30.05 in 10.0 mi Calm Calm - N/A   Clear
7:53 PM 79.0 °F - 68.0 °F 69% 30.06 in 10.0 mi Calm Calm - N/A   Clear
8:53 PM 77.0 °F - 69.1 °F 76% 30.08 in 10.0 mi Calm Calm - N/A   Clear
9:53 PM 77.0 °F - 66.0 °F 69% 30.07 in 10.0 mi Calm Calm - N/A   Clear
10:53 PM 75.0 °F - 66.9 °F 76% 30.08 in 10.0 mi East 3.5 mph - N/A   Clear
11:53 PM 73.0 °F - 66.9 °F 81% 30.08 in 10.0 mi Calm Calm - N/A   Clear